Tracking 26321 objects as of 27-Nov-2022
HD Live streaming from Space Station
objects crossing your sky now

STARLINK-4615

Track STARLINK-4615 now!
10-day predictions
STARLINK-4615 is classified as:


NORAD ID: 53620
Int'l Code: 2022-104AJ
Perigee: 545.5 km
Apogee: 548.2 km
Inclination: 53.2 °
Period: 95.4 minutes
Semi major axis: 6917 km
RCS: Unknown
Launch date: August 28, 2022
Source: United States (US)
Launch site: AIR FORCE EASTERN TEST RANGE (AFETR)
aabbcc
Your satellite tracking list
Your tracking list is empty




NASA's NSSDC Master Catalog

Two Line Element Set (TLE):
1 53620U 22104AJ  22331.25001157 -.00050564  00000-0 -31805-2 0  9998
2 53620  53.2143 213.9551 0001955  39.4564 320.4385 15.08848869 14145
Source of the keplerian elements: AFSPC